GEC152X EDDL-EDDF

Flight info

Callsign GEC152X
Flight time N/A
Altitude 23000
Route COL6T/23L COL T911 ROLIS ROLIS5A
Aircraft B77L/H-SDE1E2E3FGHIJ2J3J4J5M1RWXY/LB1D1

Departure

Time 2026-05-04 20:12
Airport Düsseldorf Airport (EDDL)

Arrival

Time N/A
Airport Frankfurt Main Airport (EDDF)
Time Latitude Longitude Altitude Speed Heading
2026-05-04 19:40 51.28507 6.77446 129 ft 0 kts 143°
2026-05-04 19:52 51.28513 6.77439 132 ft 2 kts 140°
2026-05-04 19:53 51.28526 6.77423 131 ft 2 kts 139°
2026-05-04 19:53 51.28538 6.77405 130 ft 2 kts 131°
2026-05-04 19:53 51.28547 6.77383 127 ft 2 kts 96°
2026-05-04 19:53 51.28544 6.77363 134 ft 1 kts 52°
2026-05-04 19:57 51.28549 6.77374 129 ft 6 kts 52°
2026-05-04 19:57 51.28625 6.77529 127 ft 27 kts 52°
2026-05-04 19:58 51.28676 6.77766 128 ft 22 kts 68°
2026-05-04 19:58 51.28773 6.77850 131 ft 17 kts 333°
2026-05-04 19:58 51.28864 6.77741 133 ft 14 kts 322°
2026-05-04 19:58 51.28949 6.77738 127 ft 14 kts 50°
2026-05-04 19:59 51.29009 6.77866 138 ft 14 kts 53°
2026-05-04 19:59 51.29068 6.77992 138 ft 14 kts 53°
2026-05-04 19:59 51.29128 6.78114 138 ft 14 kts 53°
2026-05-04 19:59 51.29187 6.78240 139 ft 14 kts 53°
2026-05-04 20:00 51.29242 6.78354 137 ft 9 kts 52°
2026-05-04 20:00 51.29256 6.78383 137 ft 0 kts 52°
2026-05-04 20:01 51.29258 6.78389 137 ft 5 kts 52°
2026-05-04 20:01 51.29283 6.78439 138 ft 2 kts 52°
2026-05-04 20:01 51.29289 6.78454 138 ft 2 kts 52°
2026-05-04 20:02 51.29296 6.78467 138 ft 1 kts 52°
2026-05-04 20:02 51.29307 6.78490 138 ft 5 kts 52°
2026-05-04 20:02 51.29310 6.78498 138 ft 1 kts 53°
2026-05-04 20:02 51.29313 6.78504 138 ft 1 kts 53°
2026-05-04 20:03 51.29317 6.78511 138 ft 1 kts 53°
2026-05-04 20:03 51.29322 6.78521 138 ft 0 kts 50°
2026-05-04 20:03 51.29322 6.78522 138 ft 0 kts 50°
2026-05-04 20:04 51.29354 6.78559 138 ft 6 kts 25°
2026-05-04 20:04 51.29360 6.78562 137 ft 0 kts 21°
2026-05-04 20:07 51.29360 6.78563 137 ft 2 kts 21°
2026-05-04 20:07 51.29422 6.78570 137 ft 0 kts 355°
2026-05-04 20:10 51.29461 6.78565 138 ft 14 kts 355°
2026-05-04 20:11 51.29533 6.78516 140 ft 10 kts 284°
2026-05-04 20:11 51.29523 6.78480 138 ft 0 kts 237°
2026-05-04 20:11 51.29522 6.78479 138 ft 0 kts 237°
2026-05-04 20:11 51.29468 6.78361 137 ft 37 kts 232°
2026-05-04 20:12 51.29159 6.77715 138 ft 107 kts 232°
2026-05-04 20:12 51.28587 6.76515 127 ft 162 kts 232°
2026-05-04 20:12 51.27877 6.75001 573 ft 168 kts 230°
2026-05-04 20:12 51.27170 6.73478 1111 ft 174 kts 231°
2026-05-04 20:13 51.26452 6.71926 1769 ft 172 kts 232°
2026-05-04 20:13 51.25709 6.70327 2218 ft 190 kts 232°
2026-05-04 20:13 51.24875 6.68541 2443 ft 216 kts 232°
2026-05-04 20:13 51.23899 6.66450 2700 ft 244 kts 232°
2026-05-04 20:14 51.22768 6.64411 3300 ft 250 kts 214°
2026-05-04 20:14 51.21143 6.63551 4001 ft 256 kts 181°
2026-05-04 20:14 51.19360 6.63787 4679 ft 261 kts 174°
2026-05-04 20:14 51.17532 6.64087 5466 ft 265 kts 175°
2026-05-04 20:15 51.15711 6.64501 6263 ft 266 kts 163°
2026-05-04 20:15 51.14136 6.66058 6950 ft 272 kts 133°
2026-05-04 20:15 51.13224 6.68691 7820 ft 278 kts 108°
2026-05-04 20:15 51.13056 6.71784 8522 ft 286 kts 90°
2026-05-04 20:16 51.13177 6.74993 9159 ft 294 kts 89°
2026-05-04 20:16 51.13319 6.78244 9954 ft 296 kts 89°
2026-05-04 20:16 51.13464 6.81557 10506 ft 307 kts 89°
2026-05-04 20:16 51.13609 6.85044 10850 ft 325 kts 89°
2026-05-04 20:17 51.13756 6.88742 11207 ft 343 kts 89°
2026-05-04 20:17 51.13858 6.91347 11533 ft 352 kts 89°
2026-05-04 20:17 51.14009 6.95288 12145 ft 361 kts 89°
2026-05-04 20:17 51.14159 6.99316 12839 ft 368 kts 89°
2026-05-04 20:18 51.14308 7.03405 12975 ft 372 kts 89°
2026-05-04 20:18 51.14455 7.07520 13009 ft 378 kts 89°
2026-05-04 20:18 51.14376 7.11782 13174 ft 393 kts 102°
2026-05-04 20:18 51.13718 7.16061 13779 ft 403 kts 108°
2026-05-04 20:19 51.12935 7.20400 14449 ft 411 kts 108°
2026-05-04 20:19 51.11994 7.24664 15030 ft 410 kts 121°
2026-05-04 20:19 51.10275 7.28249 15657 ft 411 kts 139°
2026-05-04 20:19 51.07969 7.30915 16472 ft 408 kts 151°
2026-05-04 20:20 51.05515 7.33260 17123 ft 415 kts 151°
2026-05-04 20:20 51.03040 7.35609 18037 ft 415 kts 151°
2026-05-04 20:20 51.00588 7.37948 19212 ft 405 kts 151°
2026-05-04 20:20 50.98210 7.40234 20447 ft 394 kts 152°
2026-05-04 20:21 50.95902 7.42465 21628 ft 381 kts 152°
2026-05-04 20:21 50.93671 7.44629 22546 ft 371 kts 152°
2026-05-04 20:21 50.89294 7.48868 22958 ft 367 kts 152°
2026-05-04 20:22 50.87124 7.50969 22655 ft 365 kts 152°
2026-05-04 20:22 50.84965 7.53059 22274 ft 361 kts 152°
2026-05-04 20:22 50.82831 7.55123 21889 ft 358 kts 152°